BREEZE-KM R/B, 43754

Orbit data source: Space-Track

BREEZE-KM R/B, 43754 is space debris in LEO originally from a launch on Fri, 30 Nov 2018 UTC launched from the Plesetsk Missile And Space Complex (PKMTR). Debris objects in space refer to the collection of defunct objects orbiting the Earth. Examples of debris include non-operational satellites, rocket bodies, and fragments generated from explosions, collisions, or faulty payload assembly.

Loading next visibility...
BREEZE-KM R/B details
Identifier
43754, 2018-097D
Orbit
LEO
Last TLE update10 hours ago
Origin
Flag of CISVVKO VKS (CIS)
ManufacturerKhrunichev
MissionSpacecraft
Bus & MotorBRIZ, S5.92
Mass2,370 kg wet, 2,370 kg dry
Launch date (UTC)
2018-11-30 (6 years ago)
Launch vehicleUnknown
Launch site
Plesetsk Missile And Space Complex (PKMTR)
Object type
Payload
Rocket body
Debris
Shape & HBRHex Cyl + 1 Rod, 4.1 m
Radar Cross Section10.190 m², Large (>1 m²)

Expand to show TLE details & history

TLE from 10 hours ago
0 BREEZE-KM R/B
1 43754U 18097D   24336.87071175  .00000015  00000-0  14963-4 0  9995
2 43754  82.5120 113.1862 0222355 180.6966 179.3859 12.80104290280470
Epoch: 2024-12-01T20:53Z
Definitive object data (Epoch: 2024-12-01T20:53:49.495Z)
Latitude-0.00002°
Longitude88.52725°
Altitude1,515.467 km
Speed7.028 km/s
True Right ascension07h 32m 44s
True Declination0° 00' 00"
Sunlit
Object was in full shadow at TLE epoch
Visualization TLE readout
Latitude43.82612°
Longitude-98.9636°
Altitude1,222.045 km
Speed7.306 km/s
Apparent Right ascension17h 58m 11s
Apparent Declination6° 43' 06"
Sunlit
Object is in daylight
Visualization observer readout
Local Sidereal Time04:45:32
Azimuth335.997° NNW
Elevation-40.443°
Doppler factor1
Orbital elements
Apogee altitude1,509.927 km
Perigee altitude1,166.767 km
Semi-major axis7,716.484 km
Eccentricity0.0222355
Inclination82.512°
RAAN113.1862°
Arg. of periapsis180.6966°
True anomaly179.41247°
Mean anomaly179.3859°
Eccentric anomaly179.39926°
Mean motion3.20195 °/min
BSTAR0.000014963
Orbital period112.43 mins
Loading maneuver chart data...
Loading historical data...
Loading historical data...
Loading historical data...
Loading historical data...
Loading historical data...
Loading historical data...
Loading historical data...
Other satellites on launch #97 in the year 2018 (2018-11-30 UTC)

BREEZE-KM R/B Visibility forecast

Observer location: undefined°, undefined

Span
Click to sort rows by Start time (UTC) header in descending order
Start Az.
Max El. time (UTC)
Max El. Az.
Max El.
End time (UTC)
End Az.
10 mins2024-12-02 08:17:32.212Z116.057° SE2024-12-02 08:22:32.212Z78.488° E18.204°2024-12-02 08:27:32.212Z40.856° NE
15 mins2024-12-02 10:07:32.212Z188.267° SSW2024-12-02 10:14:32.212Z235.052° WSW44.81°2024-12-02 10:22:32.212Z6.417° NNE
9 mins2024-12-02 12:05:32.212Z266.79° W2024-12-02 12:09:32.212Z297.62° NW16.706°2024-12-02 12:14:32.212Z334.868° NNW
11 mins2024-12-02 20:02:32.212Z17.612° NNE2024-12-02 20:07:32.212Z69.901° E27.502°2024-12-02 20:13:32.212Z130.308° SE
12 mins2024-12-02 21:55:32.212Z335.952° NNW2024-12-02 22:01:32.212Z263.535° W35.003°2024-12-02 22:07:32.212Z202.786° SW
|